Tracking 20093 objects as of 16-Dec-2019
HD Live streaming from Space Station
objects crossing your sky now

COSMOS 2251 DEB

Track COSMOS 2251 DEB now!
10-day predictions


NORAD ID: 34819
Int'l Code: 1993-036ABJ
Perigee: 738.7 km
Apogee: 776.6 km
Inclination: 74.0 °
Period: 99.8 minutes
Semi major axis: 7128 km
RCS: 0.004 m2 (small)
Launch date: June 16, 1993
Source: Commonwealth of Independent States (former USSR) (CIS)
Launch site: PLESETSK MISSILE AND SPACE COMPLEX (PKMTR)

Note: This is SATELLITE DEBRIS
aabbcc
Your satellite tracking list
Your tracking list is empty




NASA's NSSDC Master Catalog

Two Line Element Set (TLE):
1 34819U 93036ABJ 19349.59786528  .00000342  00000-0  11100-3 0  9997
2 34819  74.0263 284.9657 0026579 192.4391 341.0799 14.42428970566559
Source of the keplerian elements: AFSPC